Location: Newark
(1.4000°N, 32.2500°E)
Time: 10:16:42
(UTC+00:00)

Envisat - Visible Passes

Search period start: 14 October 2019 00:00
Search period end: 24 October 2019 00:00
Orbit: 764 x 766 km, 98.1° (Epoch: 14 October)

Date Brightness Start Highest point End Pass type
(mag) Time Alt. Az. Time Alt. Az. Time Alt. Az.
14 Oct 3.2 16:01:58 10° SSE 16:06:50 47° ENE 16:11:41 10° N visible
15 Oct 5.0 17:04:37 10° SSW 17:08:56 28° WSW 17:13:14 10° NW visible
16 Oct 3.1 16:27:11 10° S 16:32:16 82° WSW 16:37:20 10° NNW visible
17 Oct 3.6 15:51:01 10° SE 15:55:36 34° ENE 16:00:10 10° NNE visible
17 Oct 6.1 17:31:56 10° SW 17:34:21 13° WSW 17:36:46 10° WNW visible
18 Oct 4.5 16:53:00 10° S 16:57:42 38° WSW 17:02:23 10° NW visible
19 Oct 2.9 16:15:58 10° SSE 16:21:02 74° ENE 16:26:05 10° N visible
20 Oct 5.7 17:19:40 10° SW 17:23:07 19° WSW 17:26:35 10° WNW visible
21 Oct 3.8 16:41:32 10° S 16:46:28 53° WSW 16:51:23 10° NNW visible
22 Oct 3.1 16:04:52 10° SSE 16:09:48 53° ENE 16:14:43 10° N visible
23 Oct 5.2 17:07:46 10° SSW 17:11:54 25° WSW 17:16:00 10° NW visible
